• In Netherlands
  • List of Countries
  • For 7 days
  • Water Temperature
  • Satellite Maps
  • Weather Map
  • Weather Widgets
  • user-avatar
    Login

    Hourly Weather Yulara

    Today, 23 August, Wednesday

    Time Temperature Precipitation Wind Pressure Humidity
    00:00 +19°C° 0 mm 3 mps 720 mmHg 38%
    01:00 +18°C° 0 mm 3 mps 720 mmHg 39%
    02:00 +18°C° 0 mm 4 mps 720 mmHg 41%
    03:00 +17°C° 0 mm 4 mps 720 mmHg 42%
    04:00 +17°C° 0 mm 4 mps 720 mmHg 42%
    05:00 +17°C° 0 mm 4 mps 720 mmHg 41%
    06:00 +16°C° 0 mm 3 mps 721 mmHg 41%
    07:00 +18°C° 0 mm 4 mps 721 mmHg 37%
    08:00 +19°C° 0 mm 4 mps 721 mmHg 34%
    09:00 +21°C° 0 mm 4 mps 722 mmHg 29%
    10:00 +23°C° 0 mm 4 mps 722 mmHg 27%
    11:00 +25°C° 0 mm 4 mps 722 mmHg 25%
    12:00 +27°C° 0 mm 4 mps 722 mmHg 23%
    13:00 +28°C° 0 mm 4 mps 721 mmHg 22%
    14:00 +28°C° 0 mm 4 mps 721 mmHg 21%
    15:00 +29°C° 0 mm 5 mps 721 mmHg 20%
    16:00 +28°C° 0 mm 5 mps 721 mmHg 21%
    17:00 +27°C° 0 mm 5 mps 721 mmHg 22%
    18:00 +25°C° 0 mm 5 mps 721 mmHg 23%
    19:00 +23°C° 0 mm 5 mps 722 mmHg 25%
    20:00 +22°C° 0 mm 5 mps 722 mmHg 27%
    21:00 +21°C° 0 mm 4 mps 723 mmHg 28%
    22:00 +20°C° 0 mm 4 mps 723 mmHg 29%
    23:00 +20°C° 0 mm 4 mps 723 mmHg 30%

    Tomorrow, 24 August, Thursday

    Time Temperature Precipitation Wind Pressure Humidity
    00:00 +19°C° 0 mm 3 mps 723 mmHg 31%
    01:00 +18°C° 0 mm 3 mps 723 mmHg 33%
    02:00 +18°C° 0 mm 3 mps 723 mmHg 35%
    03:00 +17°C° 0 mm 3 mps 722 mmHg 37%
    04:00 +16°C° 0 mm 3 mps 723 mmHg 39%
    05:00 +15°C° 0 mm 4 mps 723 mmHg 41%
    06:00 +14°C° 0 mm 4 mps 723 mmHg 43%
    07:00 +16°C° 0 mm 5 mps 723 mmHg 39%
    08:00 +17°C° 0 mm 6 mps 724 mmHg 34%
    09:00 +18°C° 0 mm 7 mps 724 mmHg 29%
    10:00 +21°C° 0 mm 7 mps 724 mmHg 27%
    11:00 +22°C° 0 mm 6 mps 724 mmHg 24%
    12:00 +24°C° 0 mm 6 mps 724 mmHg 22%
    13:00 +24°C° 0 mm 6 mps 723 mmHg 21%
    14:00 +26°C° 0 mm 5 mps 722 mmHg 20%
    15:00 +27°C° 0 mm 5 mps 722 mmHg 19%
    16:00 +26°C° 0 mm 5 mps 722 mmHg 20%
    17:00 +25°C° 0 mm 5 mps 722 mmHg 21%
    18:00 +23°C° 0 mm 4 mps 722 mmHg 22%
    19:00 +21°C° 0 mm 5 mps 723 mmHg 23%
    20:00 +20°C° 0 mm 5 mps 723 mmHg 25%
    21:00 +19°C° 0 mm 6 mps 723 mmHg 26%
    22:00 +19°C° 0 mm 6 mps 723 mmHg 28%
    23:00 +17°C° 0 mm 6 mps 723 mmHg 29%

    Day after tomorrow, 25 August, Friday

    Time Temperature Precipitation Wind Pressure Humidity
    00:00 +16°C° 0 mm 6 mps 723 mmHg 31%
    01:00 +15°C° 0 mm 6 mps 723 mmHg 32%
    02:00 +15°C° 0 mm 6 mps 723 mmHg 34%
    03:00 +14°C° 0 mm 5 mps 722 mmHg 36%
    04:00 +14°C° 0 mm 5 mps 723 mmHg 37%
    05:00 +13°C° 0 mm 5 mps 723 mmHg 39%
    06:00 +13°C° 0 mm 5 mps 723 mmHg 41%
    07:00 +14°C° 0 mm 6 mps 723 mmHg 38%
    08:00 +15°C° 0 mm 7 mps 724 mmHg 35%
    09:00 +16°C° 0 mm 8 mps 724 mmHg 33%
    10:00 +18°C° 0 mm 8 mps 724 mmHg 30%
    11:00 +21°C° 0 mm 7 mps 723 mmHg 26%
    12:00 +23°C° 0 mm 7 mps 723 mmHg 23%
    13:00 +24°C° 0 mm 7 mps 722 mmHg 22%
    14:00 +24°C° 0 mm 6 mps 721 mmHg 21%
    15:00 +26°C° 0 mm 6 mps 721 mmHg 20%
    16:00 +25°C° 0 mm 5 mps 721 mmHg 21%
    17:00 +23°C° 0 mm 5 mps 721 mmHg 23%
    18:00 +22°C° 0 mm 4 mps 721 mmHg 24%
    19:00 +21°C° 0 mm 5 mps 721 mmHg 24%
    20:00 +20°C° 0 mm 5 mps 722 mmHg 25%
    21:00 +19°C° 0 mm 6 mps 722 mmHg 26%
    22:00 +17°C° 0 mm 6 mps 722 mmHg 26%
    23:00 +17°C° 0 mm 6 mps 722 mmHg 26%

    26 August, Saturday

    Time Temperature Precipitation Wind Pressure Humidity
    00:00 +16°C° 0 mm 5 mps 722 mmHg 26%
    01:00 +15°C° 0 mm 5 mps 721 mmHg 27%
    02:00 +15°C° 0 mm 5 mps 721 mmHg 28%
    03:00 +14°C° 0 mm 5 mps 721 mmHg 29%
    04:00 +14°C° 0 mm 5 mps 721 mmHg 28%
    05:00 +13°C° 0 mm 5 mps 722 mmHg 28%
    06:00 +13°C° 0 mm 5 mps 722 mmHg 28%
    07:00 +14°C° 0 mm 5 mps 723 mmHg 25%
    08:00 +16°C° 0 mm 5 mps 723 mmHg 23%
    09:00 +17°C° 0 mm 6 mps 724 mmHg 20%
    10:00 +19°C° 0 mm 5 mps 723 mmHg 20%
    11:00 +21°C° 0 mm 5 mps 723 mmHg 19%
    12:00 +22°C° 0 mm 5 mps 723 mmHg 18%
    13:00 +23°C° 0 mm 5 mps 722 mmHg 18%
    14:00 +25°C° 0 mm 5 mps 722 mmHg 18%
    15:00 +25°C° 0 mm 5 mps 721 mmHg 18%
    16:00 +25°C° 0 mm 4 mps 721 mmHg 19%
    17:00 +23°C° 0 mm 4 mps 721 mmHg 20%
    18:00 +22°C° 0 mm 3 mps 722 mmHg 21%
    19:00 +21°C° 0 mm 4 mps 722 mmHg 22%
    20:00 +20°C° 0 mm 4 mps 723 mmHg 23%
    21:00 +19°C° 0 mm 4 mps 723 mmHg 24%
    22:00 +19°C° 0 mm 5 mps 723 mmHg 25%
    23:00 +17°C° 0 mm 5 mps 723 mmHg 25%

    27 August, Sunday

    Time Temperature Precipitation Wind Pressure Humidity
    00:00 +16°C° 0 mm 5 mps 723 mmHg 25%
    01:00 +16°C° 0 mm 6 mps 723 mmHg 26%
    02:00 +15°C° 0 mm 6 mps 722 mmHg 26%
    03:00 +14°C° 0 mm 6 mps 722 mmHg 26%
    04:00 +14°C° 0 mm 6 mps 722 mmHg 27%
    05:00 +13°C° 0 mm 6 mps 723 mmHg 29%
    06:00 +12°C° 0 mm 5 mps 723 mmHg 30%
    07:00 +14°C° 0 mm 6 mps 723 mmHg 27%
    08:00 +15°C° 0 mm 6 mps 724 mmHg 25%
    09:00 +17°C° 0 mm 7 mps 724 mmHg 22%
    10:00 +20°C° 0 mm 6 mps 724 mmHg 21%
    11:00 +22°C° 0 mm 6 mps 724 mmHg 19%
    12:00 +25°C° 0 mm 5 mps 724 mmHg 18%
    13:00 +25°C° 0 mm 5 mps 723 mmHg 18%
    14:00 +26°C° 0 mm 5 mps 722 mmHg 18%
    15:00 +27°C° 0 mm 5 mps 722 mmHg 18%
    16:00 +26°C° 0 mm 4 mps 722 mmHg 19%
    17:00 +25°C° 0 mm 4 mps 722 mmHg 21%
    18:00 +23°C° 0 mm 4 mps 722 mmHg 23%
    19:00 +21°C° 0 mm 4 mps 722 mmHg 24%
    20:00 +20°C° 0 mm 4 mps 723 mmHg 26%
    21:00 +19°C° 0 mm 5 mps 723 mmHg 28%
    22:00 +17°C° 0 mm 5 mps 723 mmHg 29%
    23:00 +17°C° 0 mm 5 mps 723 mmHg 31%

    28 August, Monday

    Time Temperature Precipitation Wind Pressure Humidity
    00:00 +16°C° 0 mm 6 mps 723 mmHg 32%
    01:00 +15°C° 0 mm 5 mps 722 mmHg 33%
    02:00 +14°C° 0 mm 5 mps 722 mmHg 34%
    03:00 +14°C° 0 mm 5 mps 722 mmHg 35%
    04:00 +13°C° 0 mm 5 mps 722 mmHg 36%
    05:00 +13°C° 0 mm 5 mps 722 mmHg 36%
    06:00 +12°C° 0 mm 5 mps 722 mmHg 37%
    07:00 +14°C° 0 mm 6 mps 723 mmHg 34%
    08:00 +15°C° 0 mm 6 mps 723 mmHg 31%
    09:00 +17°C° 0 mm 7 mps 723 mmHg 28%
    10:00 +20°C° 0 mm 7 mps 723 mmHg 25%
    11:00 +22°C° 0 mm 6 mps 723 mmHg 23%
    12:00 +24°C° 0 mm 6 mps 722 mmHg 21%
    13:00 +24°C° 0 mm 6 mps 722 mmHg 20%
    14:00 +26°C° 0 mm 5 mps 721 mmHg 19%
    15:00 +27°C° 0 mm 5 mps 720 mmHg 18%
    16:00 +26°C° 0 mm 4 mps 720 mmHg 20%
    17:00 +25°C° 0 mm 4 mps 720 mmHg 21%
    18:00 +24°C° 0 mm 3 mps 721 mmHg 22%
    19:00 +22°C° 0 mm 4 mps 721 mmHg 23%
    20:00 +21°C° 0 mm 4 mps 721 mmHg 24%
    21:00 +19°C° 0 mm 4 mps 721 mmHg 25%
    22:00 +19°C° 0 mm 5 mps 721 mmHg 26%
    23:00 +17°C° 0 mm 5 mps 721 mmHg 26%
    Show more